Regional Weather Roundup
Issued by NWS Little Rock, AR

Home | Current Version | Previous Version | Text Only | Print | Product List | Glossary Off
Versions: 1 2 3 4 5 6 7 8 9 10 11 12 13 14 15 16 17 18 19 20 21 22 23 24 25 26 27 28 29 30 31 32 33 34 35 36 37 38 39 40 41 42 43 44 45 46 47 48 49 50

000
ASUS44 KLZK 170605
RWRLZK

WEATHER ROUNDUP FOR ARKANSAS
NATIONAL WEATHER SERVICE LITTLE ROCK AR
1200 AM CST WED JAN 17 2018

NOTE: "FAIR" INDICATES FEW OR NO CLOUDS BELOW 12,000 FEET WITH NO
SIGNIFICANT WEATHER AND/OR OBSTRUCTIONS TO VISIBILITY.

ARZ001-003-010-029-170700-
NORTHWEST ARKANSAS

CITY           SKY/WX    TMP DP  RH WIND       PRES   REMARKS
FAYETTEVILLE   CLEAR      2  -1  88 CALM      30.70F
6HR MIN TEMP:   2; 6HR MAX TEMP:   7;

FORT SMITH     CLEAR     10   0  63 N3        30.78S
6HR MIN TEMP:  10; 6HR MAX TEMP:  17;

HARRISON       CLOUDY     2  -2  83 NW8       30.67F WCI -12
6HR MIN TEMP:   2; 6HR MAX TEMP:   6;

BENTONVILLE    CLOUDY     2  -2  83 CALM      30.71S
6HR MIN TEMP:   1; 6HR MAX TEMP:   4;

ROGERS         CLOUDY     0  -5  79 W3        30.69S
6HR MIN TEMP:   0; 6HR MAX TEMP:   5;

SILOAM SPGS    CLEAR      4   0  83 CALM      30.72S
6HR MIN TEMP:   1; 6HR MAX TEMP:   5;

HIGHFILL       CLEAR      1  -2  87 SW3       30.70S
6HR MIN TEMP:   1; 6HR MAX TEMP:   5;

$$

ARZ004-005-016-170700-
NORTH CENTRAL ARKANSAS

CITY           SKY/WX    TMP DP  RH WIND       PRES   REMARKS
BATESVILLE     CLEAR      7   0  73 NW5       30.73F WCI  -2
6HR MIN TEMP:   7; 6HR MAX TEMP:  13;

FLIPPIN        CLEAR      3  -1  83 W3        30.74F
6HR MIN TEMP:   3; 6HR MAX TEMP:   8;

MTN HOME       CLOUDY     0  -1  96 N3        30.69F
6HR MIN TEMP:   0; 6HR MAX TEMP:   8;

$$

ARZ040-041-170700-
WEST CENTRAL ARKANSAS

CITY           SKY/WX    TMP DP  RH WIND       PRES   REMARKS
MENA           CLEAR     12   1  62 CALM      30.68S
MOUNT IDA      CLEAR     10   1  67 CALM      30.68F
6HR MIN TEMP:  10; 6HR MAX TEMP:  19;

$$

ARZ009-017-025-026-028-170700-
NORTHEAST ARKANSAS

CITY           SKY/WX    TMP DP  RH WIND       PRES   REMARKS
JONESBORO      FAIR      11   3  70 NW7       30.71F WCI   0
6HR MIN TEMP:  11; 6HR MAX TEMP:  15;

NEWPORT        FAIR       9   1  70 NW14      30.74F WCI  -7
6HR MIN TEMP:   9; 6HR MAX TEMP:  14;

WALNUT RIDGE   FAIR       8   1  73 NW9       30.73F WCI  -5
6HR MIN TEMP:   8; 6HR MAX TEMP:  13;

BLYTHEVILLE    FAIR       3   3 100 CALM      30.71F
6HR MIN TEMP:   3; 6HR MAX TEMP:   9;

$$

ARZ022-023-033-042-044-170700-
CENTRAL ARKANSAS

CITY           SKY/WX    TMP DP  RH WIND       PRES   REMARKS
LITTLE ROCK    CLEAR     10   2  69 N9        30.75F WCI  -3
6HR MIN TEMP:   9; 6HR MAX TEMP:  17;

N LITTLE ROCK    N/A      9   2  71 N3        30.79F
6HR MIN TEMP:   9; 6HR MAX TEMP:  17;

JACKSONVILLE   CLEAR     10   0  63 CALM      30.73F
6HR MIN TEMP:  10; 6HR MAX TEMP:  17;

SEARCY         FAIR       9   2  73 N5        30.75F WCI   1
6HR MIN TEMP:   9; 6HR MAX TEMP:  16;

HOT SPRINGS    CLEAR     14   1  56 CALM      30.71F
6HR MIN TEMP:  14; 6HR MAX TEMP:  20;

RUSSELLVILLE   CLEAR     10   1  67 N7        30.73F WCI  -1
6HR MIN TEMP:  10; 6HR MAX TEMP:  20;

CLINTON        FAIR       9   0  66 VRB5      30.74F WCI   0
$$

ARZ036-170700-
EAST ARKANSAS

CITY           SKY/WX    TMP DP  RH WIND       PRES   REMARKS
WEST MEMPHIS   FAIR       8   4  83 NW6       30.70F WCI  -2
6HR MIN TEMP:   5; 6HR MAX TEMP:  10;

$$

ARZ050-053-066-070-073-170700-
SOUTHWEST ARKANSAS

CITY           SKY/WX    TMP DP  RH WIND       PRES   REMARKS
CAMDEN         FAIR       9   3  78 CALM      30.75S
TEXARKANA      CLEAR     13   2  61 N5        30.73F WCI   5
6HR MIN TEMP:  13; 6HR MAX TEMP:  22;

EL DORADO      FAIR      11   7  84 NW5       30.72F WCI   3
6HR MIN TEMP:  10; 6HR MAX TEMP:  21;

DE QUEEN       CLEAR     11   4  73 CALM      30.74F
6HR MIN TEMP:  10; 6HR MAX TEMP:  21;

$$

ARZ056-057-069-170700-
SOUTHEAST ARKANSAS

CITY           SKY/WX    TMP DP  RH WIND       PRES   REMARKS
PINE BLUFF     FAIR      11   2  67 N9        30.74F WCI  -2
6HR MIN TEMP:  11; 6HR MAX TEMP:  16;

STUTTGART      FAIR      10   2  69 N10       30.75F WCI  -4
6HR MIN TEMP:   9; 6HR MAX TEMP:  14;

MONTICELLO     FAIR      11   4  73 CALM      30.72F
6HR MIN TEMP:  10; 6HR MAX TEMP:  17;


$$





USA.gov is the U.S. government's official web portal to all federal, state and local government web resources and services.